Location: Favalello
(42.2939°N, 9.2706°E)
Time: 05:11:34
(UTC+00:00)

Shenzhou-11 Module - Pass Details

Date: 06 December 2019
Orbit: 301 x 315 km, 42.8° (Epoch: 28 January)

Event Time Altitude Azimuth Distance (km) Brightness Sun altitude
Rises 16:21:50 0° 245° (WSW) 2,067 8.7 -5.9°
Reaches altitude 10° 16:23:51 10° 241° (WSW) 1,233 6.5 -6.3°
Maximum altitude 16:26:33 53° 162° (SSE) 401 2.2 -6.7°
Drops below altitude 10° 16:29:15 10° 84° (E) 1,226 4.0 -7.2°
Enters shadow 16:29:24 - 84° (E) 1,292 4.1 -7.2°
